Regional Weather Roundup
Issued by NWS Jackson, KY

Home | Current Version | Previous Version | Graphics & Text | Print | Product List | Glossary On
Versions: 1 2 3 4 5 6 7 8 9 10 11 12 13 14 15 16 17 18 19 20 21 22 23 24 25 26 27 28 29 30 31 32 33 34 35 36 37 38 39 40 41 42 43 44 45 46 47 48 49 50
000
ASUS43 KJKL 300910
RWRJKL

EAST KENTUCKY HOURLY WEATHER ROUNDUP
NATIONAL WEATHER SERVICE JACKSON KY
500 AM EDT FRI SEP 30 2016

NOTE: "FAIR" INDICATES FEW OR NO CLOUDS BELOW 12,000 FEET WITH
NO SIGNIFICANT WEATHER AND/OR OBSTRUCTIONS TO VISIBILITY.

* THESE REPORTS ARE NOT UNDER NWS QUALITY CONTROL AND MAY NOT
  REPORT WEATHER SUCH AS PRECIPITATION AND FOG.

KYZ079-080-083-085-087-088-110-112-115-119-120-301000
...EASTERN KENTUCKY...

CITY           SKY/WX    TMP DP  RH WIND       PRES   REMARKS
JACKSON        FOG       53  52  96 CALM      30.03S VSB 1/4
LONDON         CLOUDY    50  48  93 CALM      30.04S FOG
SOMERSET*      CLOUDY    48  48 100 CALM      30.06S
MONTICELLO*    CLOUDY    50  50 100 W10       30.07S FOG
WILLIAMSBURG*  CLOUDY    48  48 100 CALM      30.05S
MIDDLESBORO*   PTCLDY    50  49  97 CALM      30.04S
HARLAN APT*    CLOUDY    52  50  93 CALM      30.04S
PIKE CO APT*   FOG       54  54 100 CALM      30.02S VSB 1/4
BIG SANDY APT* CLOUDY    55  55 100 CALM      30.02F FOG
MOREHEAD APT*  CLOUDY    55  54  94 CALM      30.04S FOG
ASHLAND*       CLOUDY    61  57  88 CALM      29.99S
$$

KYZ035-036-041-042-044-050-067-078-099-301000
...CENTRAL KENTUCKY...

CITY           SKY/WX    TMP DP  RH WIND       PRES   REMARKS
MT STERLING*   PTCLDY   N/A N/A N/A CALM      30.04S FOG
FLEMING/MASON* CLOUDY    56  55  99 SW3       30.04R FOG
DANVILLE*      CLOUDY    50  50 100 CALM      30.05S FOG
LEXINGTON      CLOUDY    55  53  93 S3        30.04R FOG
FRANKFORT      CLOUDY    56  53  90 S3        30.03R FOG
LOUISVILLE     CLOUDY    57  53  86 S7        30.01S
LEBANON*         N/A     52  52 100 E3        30.04S FOG
GLASGOW*       FOG      N/A N/A N/A CALM      30.04R VSB 1/4
BOWLING GREEN  FOG       51  50  96 SW3       30.04S VSB 3/4
$$

KYZ091>093-OHZ055-061-077-WVZ005-015-034-035-042-301000
...SOUTHERN OHIO/WEST VIRGINIA...

CITY           SKY/WX    TMP DP  RH WIND       PRES   REMARKS
COVINGTON      CLOUDY    57  55  94 SE5       30.02S
COLUMBUS       CLOUDY    62  61  96 E7        30.03F
DAYTON         CLOUDY    58  57  97 CALM      30.05R
WILMINGTON     CLOUDY    56  56 100 N3        30.01F FOG
HUNTINGTON     FOG       58  57  97 SE3       30.01F VSB 1
CHARLESTON     CLOUDY    59  57  93 CALM      30.03R FOG
PINEVILLE*     FOG       57  54  91 MISG      30.08S VSB 1/2
BECKLEY        CLOUDY    57  57 100 E5        30.04R FOG
BLUEFIELD      MOCLDY    54  53  97 CALM      30.04S FOG
LOGAN CO APT*  CLOUDY    55  55 100 CALM      30.02F FOG
$$

VAZ002-007-008-TNZ017-027-036-066-071-301000
...SOUTHWEST VIRGINIA/EAST TENNESSEE...

CITY           SKY/WX    TMP DP  RH WIND       PRES   REMARKS
WISE*          FOG       52  52 100 CALM      30.04S VSB<1/4
JONESVILLE*    CLOUDY    52  52 100 CALM      30.05S
ABINGDON*      RAIN      58  57  99 E3        30.02S
BRISTOL        CLOUDY    57  55  93 CALM      30.01S
MORRISTOWN*    CLOUDY    54  52  94 CALM      30.00F
SEVIERVILLE*   PTSUNNY   55  48  76 CALM      30.01F
KNOXVILLE      CLEAR     52  47  83 SW3       30.02S
OAK RIDGE      PTCLDY    49  46  90 CALM      30.04F
CROSSVILLE     FOG       47  47 100 W6        30.05S VSB 1/4
NASHVILLE      MOCLDY    50  48  93 CALM      30.06S
$$

...KEY TO REMARKS...
VSB - VISIBILITY IN MILES
WCI - WIND CHILL INDEX
HX  - HEAT INDEX

$$



USA.gov is the U.S. government's official web portal to all federal, state and local government web resources and services.